GFSCGP_sfc_dewp_246.txt.gz
Dewpoint
22 22 19 19 23 25 24 22 20 21 22 24 24 24 25 25 23 22 22 22 18 17 17 21 26 38 54 58 59 60 60 62 62 61 60 59 58 58 58 58 59 59 58 58
22 19 19 22 23 22 23 23 21 20 21 22 22 21 21 22 23 22 22 22 20 17 16 16 22 30 56 57 58 60 61 61 62 61 61 60 59 58 58 58 58 58 58 58
19 19 21 18 20 21 22 22 20 20 22 24 23 21 21 22 23 23 23 23 22 17 16 16 18 25 42 56 58 59 61 62 62 62 61 61 60 59 56 55 56 56 56 57
21 22 18 18 20 24 20 21 23 23 23 15 21 12 14 16 18 21 22 23 24 18 16 16 16 22 31 52 57 59 60 61 62 63 61 59 58 56 56 55 55 56 56 57
17 18 19 19 20 23 22 25 25 24 22 21 16 17 15 15 19 24 25 22 22 21 18 17 17 23 29 53 55 58 59 60 61 62 61 59 58 57 56 56 55 55 56 57
20 21 23 24 21 22 25 25 23 24 23 12 14 16 15 19 21 20 24 26 29 20 20 19 19 22 33 52 56 58 58 58 59 61 61 60 58 56 55 55 54 55 56 56
16 17 21 26 21 22 22 18 9 3 7 8 15 18 19 18 14 20 22 23 25 29 19 19 19 20 28 51 55 57 56 56 57 59 60 59 58 57 56 56 55 54 54 53
9 7 18 23 22 22 23 20 14 2 9 11 16 17 23 14 14 22 22 21 24 29 20 20 21 22 28 46 54 55 55 55 57 58 58 59 59 58 57 57 56 56 55 54
13 10 20 22 25 21 17 14 15 13 15 12 16 12 18 13 13 16 20 28 27 27 20 21 22 25 31 46 53 54 55 54 54 52 46 44 49 51 49 45 45 45 44 44
21 12 16 19 24 22 17 14 6 14 5 3 16 10 5 10 11 14 30 25 23 22 28 36 41 44 45 46 48 48 47 46 45 43 42 41 41 41 40 40 39 39 39 39
25 17 13 19 16 18 15 10 12 14 14 8 8 6 15 12 12 14 32 33 35 36 37 38 39 40 40 41 42 42 41 40 40 40 40 39 39 39 38 38 37 37 37 37
26 19 11 10 19 20 18 15 14 7 11 11 12 9 17 14 13 19 30 33 34 35 35 36 36 36 36 37 38 37 37 37 38 37 36 36 35 35 34 34 33 34 33 34
25 16 7 9 18 17 18 17 15 17 14 6 2 4 16 13 12 15 24 29 31 32 32 33 33 34 34 36 35 36 35 35 35 34 33 33 33 32 32 32 32 32 31 31
24 19 17 10 12 18 14 15 13 9 0 5 6 4 8 8 8 11 18 25 27 28 29 30 30 31 32 33 33 32 32 33 33 32 31 31 31 30 29 28 28 28 28 28
24 11 14 12 14 20 18 15 13 8 8 4 7 5 8 8 8 11 16 21 21 23 25 26 27 28 29 29 30 30 30 31 31 30 29 29 28 27 26 25 25 25 24 24
22 10 10 10 14 20 17 17 14 11 9 9 10 8 14 12 11 9 12 14 16 19 21 23 24 25 26 27 27 27 28 28 28 27 27 26 25 24 23 22 22 22 22 22
19 20 14 8 12 13 10 16 15 13 11 9 2 8 13 9 7 7 8 11 12 15 18 20 21 23 24 24 24 24 25 25 24 25 25 23 22 20 20 20 19 19 19 19
21 20 12 5 6 8 21 22 20 17 14 12 11 10 12 14 12 10 11 9 10 12 16 17 19 20 22 23 23 21 21 21 20 19 19 19 19 18 18 18 17 17 17 17
22 18 4 5 3 21 18 18 16 14 15 15 11 11 12 20 19 11 11 11 12 12 14 17 18 17 17 18 18 17 16 16 16 16 16 17 16 16 16 16 15 16 15 14
20 18 11 0 2 8 14 17 20 20 16 15 13 11 10 9 7 7 10 10 10 12 13 13 15 15 14 14 15 14 14 14 13 14 14 15 14 13 13 13 13 14 14 13
8 8 4 0 1 13 13 17 17 11 15 11 10 11 9 5 4 6 9 8 9 9 10 10 9 10 12 13 12 12 12 13 14 14 14 13 13 13 12 11 11 11 11 11
15 9 2 -3 0 5 15 15 12 10 6 5 5 9 7 4 3 5 6 5 5 5 6 6 5 5 7 8 8 8 8 10 10 11 11 12 13 13 13 11 11 10 9 8
12 15 11 11 10 11 9 8 10 7 7 6 12 13 9 4 1 -2 -3 -3 -2 -1 -0 1 2 2 3 5 6 5 6 7 7 6 6 8 9 11 12 11 11 10 9 7
19 23 17 13 14 10 9 12 12 13 15 14 12 10 5 1 -1 -2 -3 -3 -2 -1 0 1 1 0 0 2 3 4 4 5 3 2 3 3 4 5 8 9 9 10 10 8
20 22 20 18 19 15 16 18 16 15 15 12 10 8 5 1 -0 -1 -2 -2 -2 -1 0 1 0 -1 -1 -0 -0 1 3 4 3 2 1 1 0 0 -0 2 8 7 9 9
22 20 14 12 18 17 17 17 16 14 13 11 9 8 6 3 1 0 -0 0 -0 -0 0 -1 -1 -3 -3 -4 -4 -5 -4 -1 -1 -1 -2 -2 -3 -4 -4 -5 -6 4 8 8

GFSCGP_sfc_dewp_252.txt.gz
Dewpoint
22 21 19 18 20 20 22 24 20 19 20 20 20 19 19 19 20 20 21 22 20 21 22 24 26 28 30 30 29 39 51 57 60 61 61 59 59 59 59 59 58 56 56 57
20 17 19 21 23 23 21 21 19 18 20 20 19 18 19 20 22 22 22 23 23 23 23 23 25 26 29 30 30 41 53 58 61 61 61 60 59 59 59 60 59 57 57 57
19 18 18 24 19 18 18 19 18 19 19 18 17 17 18 21 18 17 19 20 23 26 25 23 24 25 27 30 32 46 55 59 61 61 61 61 60 60 59 59 59 58 57 57
17 17 18 18 17 17 19 16 15 16 18 13 19 13 15 15 14 14 16 17 19 22 25 27 24 25 26 29 33 45 53 58 60 61 60 59 58 57 58 58 59 58 58 58
15 16 18 21 17 18 19 18 15 16 19 22 17 19 15 12 13 14 14 15 17 20 23 25 28 26 26 29 33 47 55 60 60 60 60 59 58 58 58 58 58 58 59 59
20 18 21 20 18 17 17 16 17 25 23 16 21 17 13 14 18 15 15 15 19 21 23 25 28 27 26 30 35 51 56 58 59 59 58 59 58 58 57 57 57 58 58 58
17 15 17 21 21 13 19 15 11 12 14 15 21 17 16 18 17 19 16 18 28 25 24 26 26 23 24 28 46 54 53 49 50 48 47 47 46 45 45 53 56 54 50 50
15 12 18 24 22 18 14 15 9 2 7 10 19 12 18 14 19 20 18 31 27 27 27 29 32 37 41 44 51 48 46 44 43 42 42 42 41 41 41 41 41 41 40 41
17 15 16 24 24 16 13 11 15 10 12 12 15 9 14 9 13 15 15 30 32 35 37 39 42 43 44 45 45 43 42 41 40 40 40 39 39 38 37 38 38 38 39 38
20 15 14 18 23 17 12 10 8 11 4 4 11 7 6 8 9 10 12 20 30 32 34 36 37 39 40 41 39 39 38 37 36 36 36 36 36 36 36 35 35 35 36 35
24 19 16 17 21 18 13 9 10 11 10 6 5 9 13 9 10 10 13 19 28 29 32 33 34 35 36 37 36 35 35 34 34 34 34 34 33 33 33 32 32 32 33 33
22 22 16 14 24 20 15 14 12 10 5 7 9 10 15 13 12 12 12 18 24 28 30 30 32 32 33 33 33 32 32 32 32 31 30 31 31 30 31 30 31 31 30 30
27 19 17 15 18 15 15 13 11 10 10 4 5 10 14 13 11 12 12 16 21 24 26 27 28 29 30 31 30 30 29 29 28 28 27 27 27 26 25 25 26 25 23 22
25 20 17 16 18 20 14 13 10 8 6 5 4 5 9 8 8 10 11 14 18 21 22 24 25 26 27 28 28 27 27 26 26 25 25 25 24 23 23 23 23 23 22 21
23 19 17 17 19 20 16 13 11 8 8 5 6 6 8 8 8 9 11 13 14 16 18 20 21 23 24 25 25 25 24 24 22 21 21 21 21 21 22 22 22 22 22 22
22 20 17 14 15 16 17 15 13 10 9 9 9 9 14 11 10 7 8 10 11 13 15 17 19 20 21 22 22 19 19 19 19 18 18 18 19 19 20 20 22 23 23 22
22 20 18 18 17 17 16 17 15 13 11 9 7 11 15 9 7 6 7 9 9 11 13 14 16 18 20 19 17 19 20 19 18 18 18 18 17 18 19 19 19 20 20 22
21 19 16 20 19 14 24 21 19 16 13 13 13 13 15 11 12 10 10 9 10 11 13 14 16 17 18 18 18 15 14 15 17 17 17 17 16 17 17 16 17 18 19 19
23 20 18 21 19 21 21 18 17 17 17 15 13 13 14 18 18 12 10 11 10 11 12 14 15 16 16 16 16 16 16 15 15 15 16 16 16 15 16 16 16 16 16 16
22 18 21 19 18 16 22 21 21 20 19 17 15 13 12 16 15 11 9 10 10 11 12 12 14 14 14 15 13 12 13 12 12 12 12 14 14 13 13 12 11 12 12 11
18 17 19 20 20 21 21 17 17 13 21 16 13 11 9 6 9 7 7 8 9 10 10 10 10 11 12 13 13 12 12 12 11 11 10 9 9 10 8 8 7 7 6 7
19 20 20 13 18 14 19 15 16 19 14 13 12 10 7 6 5 5 6 6 6 7 6 6 5 5 5 6 5 6 6 8 10 10 11 12 13 10 11 13 11 11 11 9
21 20 20 19 21 19 18 18 16 17 16 15 14 10 6 1 -2 -6 -6 -4 -3 -3 -2 -0 0 1 3 5 5 5 6 7 8 9 9 11 12 12 13 13 11 10 11 9
21 22 18 19 19 21 18 18 19 17 17 14 11 7 1 -6 -9 -9 -8 -7 -5 -2 -2 0 1 1 0 2 3 3 3 4 6 7 6 6 8 9 10 8 8 11 10 10
22 23 20 18 20 19 19 18 19 18 18 14 10 6 -2 -6 -8 -8 -6 -4 -4 -3 -1 0 0 -1 -1 0 0 2 4 5 4 4 3 2 1 3 3 7 8 7 9 10
23 22 17 20 22 21 18 18 17 16 14 12 8 4 0 -3 -5 -3 -3 -3 -2 -1 -0 -0 -0 -1 -2 -1 -1 -1 1 4 5 1 -1 -2 -2 -2 -3 -2 -1 7 8 10

GFSCGP_sfc_dewp_255.txt.gz
Dewpoint
20 22 20 18 20 20 21 24 21 19 18 19 20 18 17 19 20 21 21 21 20 21 20 20 23 25 27 27 28 29 31 43 51 60 60 60 60 61 61 62 61 61 60 59
20 17 18 22 22 19 16 17 17 16 17 23 20 15 15 20 18 17 17 19 20 23 25 23 23 24 26 26 28 28 30 42 54 59 60 60 60 61 60 61 61 61 61 60
18 17 18 18 18 18 16 16 19 19 19 16 13 14 20 18 16 15 15 16 17 18 21 24 26 24 25 26 29 30 32 44 56 61 61 60 60 59 59 59 59 60 60 60
16 17 17 18 19 17 19 16 16 14 19 14 27 18 17 14 12 13 14 16 18 19 19 22 25 26 25 27 29 32 37 50 56 61 60 59 58 57 58 58 59 59 60 60
18 17 17 22 16 18 21 15 14 15 19 19 16 18 16 11 12 13 14 16 19 21 22 22 24 27 27 28 31 33 40 52 57 61 60 59 59 58 59 59 58 58 59 59
19 17 19 19 18 15 15 17 17 25 22 17 22 20 13 14 17 14 14 15 20 27 25 24 26 28 29 29 31 36 52 54 52 53 55 51 47 53 56 58 58 58 58 57
18 15 17 21 20 14 19 17 14 13 15 14 23 13 15 17 18 18 16 17 31 32 26 26 26 24 25 27 37 50 48 46 47 46 45 46 44 43 43 43 43 44 43 42
18 15 19 26 22 19 14 15 11 6 8 12 14 12 17 16 19 20 17 19 27 32 35 38 41 44 45 47 46 45 43 42 41 41 40 40 40 40 39 39 39 39 39 39
18 17 17 24 23 16 13 11 12 13 15 13 14 10 21 10 13 14 14 15 22 29 32 34 37 39 40 41 42 42 40 38 39 38 38 37 37 36 36 36 37 37 37 36
22 16 15 17 24 16 12 11 11 14 7 5 10 10 5 8 9 11 12 15 21 25 28 31 33 34 35 37 38 38 36 35 35 35 34 34 34 34 33 33 33 33 33 34
25 21 18 17 21 16 12 11 11 12 10 9 8 9 13 10 11 11 13 16 19 22 26 29 31 33 32 34 34 33 32 32 31 31 31 31 32 31 31 30 30 30 30 30
24 23 20 16 25 18 14 13 13 13 8 9 10 11 17 14 14 13 12 15 19 21 24 27 29 30 29 29 28 28 30 29 28 28 27 28 28 28 28 27 27 27 26 27
27 20 18 17 19 15 15 14 12 11 13 8 9 13 16 13 11 12 12 14 17 18 21 23 25 26 26 26 26 26 27 27 26 25 25 24 24 23 23 22 20 18 17 17
26 22 19 15 16 20 14 13 11 9 11 9 7 8 10 9 8 9 10 13 15 16 18 20 21 23 24 24 24 24 24 24 24 23 23 23 22 21 21 21 21 21 20 19
24 21 19 21 21 22 18 15 11 10 9 9 8 8 9 9 8 8 10 12 12 14 15 17 19 20 22 22 23 24 21 22 21 20 20 20 21 21 21 21 21 22 22 22
23 23 19 18 20 19 21 17 14 12 11 9 11 10 15 12 11 8 8 10 9 12 14 16 17 19 20 22 21 18 18 18 18 17 18 18 18 19 20 22 23 23 22 22
23 23 22 20 22 19 18 19 15 14 13 11 10 12 15 10 8 7 8 9 10 12 13 15 17 18 20 19 17 19 19 18 17 17 17 17 17 18 19 20 20 21 21 22
22 21 21 24 24 16 23 22 20 15 15 15 16 17 17 12 12 11 12 11 11 12 14 15 17 17 18 18 18 16 15 16 16 17 17 16 16 17 17 17 18 18 19 19
24 22 24 25 22 23 23 23 22 20 19 18 16 17 19 19 18 12 12 12 11 12 13 15 16 17 17 16 16 15 15 15 15 15 16 16 16 16 16 15 16 16 16 16
23 20 24 25 19 16 27 23 22 23 22 20 17 16 15 17 13 13 10 11 11 12 13 14 15 15 15 16 13 11 12 11 11 11 12 13 13 12 11 11 12 13 12 12
23 23 26 25 25 26 25 19 18 20 24 22 18 15 13 13 14 9 9 10 11 12 13 12 13 12 13 14 13 12 11 11 11 11 10 10 11 12 11 11 10 10 10 10
24 26 26 22 24 20 21 17 19 24 20 18 16 13 11 9 8 8 8 9 9 10 8 8 6 5 5 5 5 6 7 9 11 12 13 13 14 11 13 13 14 14 13 12
25 24 27 26 29 23 24 23 21 21 19 18 15 13 8 4 3 1 -1 -3 -4 -3 -2 1 1 2 3 6 6 6 7 9 10 11 11 12 13 14 15 15 14 13 13 12
23 20 19 21 24 23 22 21 21 21 19 15 8 5 1 -4 -8 -9 -7 -7 -5 -2 -0 2 2 3 3 4 4 4 6 7 9 9 9 10 11 12 12 10 10 13 13 13
23 22 21 20 22 21 21 20 20 21 20 13 7 3 -2 -7 -10 -10 -6 -4 -3 -2 0 3 3 2 1 2 4 6 7 9 8 8 7 7 6 9 8 9 9 9 11 13
23 22 18 23 23 21 18 20 19 17 15 13 9 4 0 -4 -7 -5 -2 -3 -2 1 2 4 4 3 3 4 3 4 5 8 8 6 4 3 2 2 2 3 3 8 10 12

GFSCGP_sfc_dewp_258.txt.gz
Dewpoint
24 24 19 17 21 21 20 20 17 15 17 25 26 24 18 23 19 16 15 16 17 18 20 23 27 26 29 28 29 31 34 37 46 49 56 59 60 61 61 62 62 63 62 62
24 17 18 20 20 19 20 19 16 18 19 17 19 16 13 19 19 14 14 15 16 17 18 19 23 28 28 28 29 31 34 36 42 53 57 59 59 61 60 61 61 62 62 61
19 16 16 16 19 19 18 17 21 15 15 18 14 18 23 19 13 14 16 17 18 19 20 20 20 24 27 28 29 31 36 37 42 54 58 59 60 59 59 60 60 61 61 61
22 19 17 19 20 18 16 17 15 16 19 12 23 13 14 11 11 13 15 15 16 19 25 23 21 23 26 29 29 33 36 39 46 55 57 58 57 57 58 59 59 60 60 60
21 19 18 20 17 19 17 17 16 17 18 18 17 17 13 10 10 12 14 14 15 26 30 24 23 24 26 29 32 35 42 52 54 55 58 57 58 58 58 58 58 59 59 59
22 21 21 20 20 19 17 17 19 23 22 13 21 19 9 11 13 12 13 13 18 28 32 34 30 27 28 30 33 49 48 47 49 49 50 51 49 49 51 51 49 46 45 45
21 19 21 23 20 17 17 14 9 10 13 12 17 10 11 14 15 16 15 16 21 25 30 32 36 39 40 45 44 45 44 43 43 43 44 44 43 43 41 41 40 40 40 40
15 11 19 25 21 14 14 11 4 1 7 11 14 8 12 13 17 18 18 20 18 21 26 31 32 35 38 40 40 40 40 41 40 39 39 39 38 39 38 38 37 36 36 37
17 14 20 23 23 15 12 9 13 12 14 11 13 9 21 9 11 12 14 14 17 20 24 29 31 31 33 35 37 36 36 37 37 36 36 35 35 35 34 34 34 34 34 34
20 13 18 21 22 17 14 13 9 10 -5 0 12 6 3 7 7 9 11 13 16 19 22 26 27 29 29 31 34 34 33 32 33 33 32 32 32 32 32 31 31 30 30 30
26 19 16 19 14 11 12 10 13 12 8 3 2 2 10 8 9 8 11 14 16 18 21 23 25 26 28 29 31 31 31 29 29 28 28 28 28 28 28 27 27 27 27 27
25 18 17 11 19 18 16 11 10 3 1 4 4 3 11 8 10 11 11 13 15 19 20 22 23 24 25 25 27 28 28 27 28 26 24 23 24 23 23 23 24 24 23 24
23 20 12 11 18 17 12 15 13 12 13 7 5 7 13 10 10 10 10 12 14 16 18 20 21 21 22 23 25 26 26 26 25 23 22 21 21 20 18 18 17 16 16 16
25 21 10 7 9 17 9 11 12 11 5 2 6 5 8 7 6 6 9 11 13 15 16 17 19 21 22 23 24 24 24 24 23 22 21 21 21 20 20 20 20 20 19 19
23 14 12 13 12 17 16 5 10 8 10 6 5 8 8 7 7 8 9 11 11 12 14 16 17 19 21 22 23 23 23 22 19 19 20 20 20 19 20 20 20 20 21 21
23 17 13 10 13 10 12 12 11 10 6 10 11 9 14 12 9 7 8 9 9 11 13 15 17 19 20 21 21 17 17 17 17 17 17 18 19 20 21 21 22 22 21 21
20 16 11 12 13 15 10 10 4 4 6 9 3 11 13 8 6 6 7 9 9 11 13 13 16 18 19 18 16 17 18 17 16 16 16 17 17 18 19 19 19 19 19 19
21 15 15 13 14 4 13 14 10 6 6 5 8 12 13 10 10 10 11 9 9 10 12 14 16 17 17 17 16 14 14 15 15 16 16 16 16 16 16 16 16 17 17 16
24 18 17 13 8 14 23 14 14 11 10 8 9 10 15 14 17 13 12 13 12 12 13 13 14 14 15 14 14 13 12 13 13 13 13 13 14 13 13 13 14 15 15 15
24 21 18 13 9 4 14 16 21 17 12 11 10 13 17 18 9 7 6 7 6 8 9 9 10 13 13 14 12 10 10 9 10 11 12 12 12 11 11 11 11 13 13 12
12 12 16 14 12 15 15 20 21 13 17 14 12 10 15 14 9 3 5 5 8 9 8 10 9 9 10 12 12 11 10 11 12 12 12 11 12 13 12 12 12 12 12 12
16 14 11 12 11 7 18 17 14 18 12 11 8 9 5 2 1 2 3 4 6 5 9 10 7 7 8 9 8 8 9 11 12 12 12 12 13 13 13 12 13 13 12 11
17 21 22 22 22 16 16 15 12 14 13 11 11 11 7 6 5 7 6 6 5 1 1 3 4 4 5 8 8 7 8 9 9 8 7 8 10 12 13 12 12 12 12 11
22 20 19 15 18 15 14 16 17 17 18 16 10 8 4 0 2 0 -2 -4 -2 2 3 5 6 5 5 6 7 7 8 9 2 4 6 8 9 10 11 11 11 11 11 10
23 21 20 19 20 17 19 20 19 20 18 11 8 4 1 -1 -4 -6 -4 -0 0 1 4 7 6 4 4 5 5 5 6 4 6 5 6 5 5 6 7 9 9 10 13 13
23 21 18 17 21 16 17 20 19 19 13 8 6 4 2 -2 -5 -2 1 1 2 4 6 5 4 3 2 1 -1 -2 -2 2 2 4 4 4 4 3 4 4 2 9 11 13

GFSCGP_sfc_dewp_261.txt.gz
Dewpoint
22 20 17 17 20 21 21 23 18 16 17 22 21 19 25 26 15 15 16 17 17 18 20 23 25 24 24 29 26 29 32 34 38 46 47 52 55 61 62 62 64 63 63 62
21 16 18 20 21 20 18 19 17 20 16 15 19 19 25 18 13 14 16 16 17 17 20 25 30 26 24 27 30 30 33 35 38 47 51 55 56 60 61 62 61 63 62 61
20 17 19 18 18 19 18 17 16 14 16 20 19 18 16 14 12 12 14 17 17 18 23 30 31 27 24 25 29 31 33 35 39 41 53 56 57 59 59 60 60 61 61 61
23 22 20 19 18 18 14 17 14 16 17 10 21 6 10 10 10 11 13 16 18 20 25 31 34 25 23 24 28 32 37 46 50 50 53 55 55 55 57 58 60 60 61 60
17 19 19 15 19 19 14 15 16 21 18 19 20 11 10 8 8 10 12 16 17 20 25 32 33 36 34 25 29 45 48 47 49 52 54 55 56 57 58 58 55 50 48 51
21 22 20 22 19 19 16 15 19 25 17 6 15 13 7 9 12 10 11 14 16 21 25 29 31 33 39 42 44 44 44 43 44 46 48 51 51 50 47 46 43 42 42 42
19 19 21 23 18 17 15 7 -6 0 3 10 13 7 7 14 14 14 13 15 18 22 24 26 28 30 33 36 38 41 41 40 40 41 42 42 43 43 41 40 39 38 37 37
8 7 19 23 14 8 14 4 -8 -10 -0 6 13 8 10 17 17 16 15 18 18 19 21 25 26 28 29 32 32 34 36 37 37 37 39 38 38 38 37 37 36 35 35 35
8 8 20 21 20 14 10 8 13 1 7 6 13 13 17 12 9 9 10 11 13 17 20 23 25 26 28 29 30 31 31 33 34 35 34 34 35 35 33 33 33 33 33 32
15 10 17 22 18 18 14 14 5 9 -10 -10 4 4 1 5 4 6 7 10 12 16 19 22 23 25 26 28 28 29 30 30 31 30 31 30 30 29 29 29 28 28 28 29
22 12 13 16 6 4 12 8 11 12 9 -4 -5 -6 7 5 6 4 7 11 13 16 18 21 22 24 25 26 27 27 28 28 29 28 26 26 26 26 26 26 26 26 25 24
24 14 8 10 12 17 15 5 10 5 7 12 8 6 14 10 9 8 9 12 14 17 18 20 21 22 23 23 25 25 26 27 28 25 22 21 21 21 21 21 22 22 22 23
20 17 5 8 15 17 11 15 13 13 14 9 6 5 15 10 7 8 8 11 13 15 17 19 19 20 21 22 23 24 25 26 26 23 20 19 19 18 18 18 18 18 17 17
25 17 5 5 8 5 8 13 12 11 4 1 4 2 5 6 5 6 8 11 12 14 15 17 18 19 21 22 22 23 24 26 26 24 21 20 20 19 19 20 20 20 20 19
21 16 7 6 7 8 6 9 9 2 5 2 7 3 3 5 6 7 9 10 11 12 13 15 16 18 19 20 22 23 23 24 22 21 19 19 19 19 19 19 20 20 20 21
22 11 13 9 6 5 7 13 9 9 3 4 6 2 9 9 9 7 8 9 9 10 12 14 16 17 18 20 20 21 17 17 17 17 17 18 18 19 20 20 21 21 21 20
17 11 7 3 10 13 8 7 1 -0 2 6 1 7 10 6 5 5 7 8 8 10 12 13 15 16 18 18 16 16 17 16 16 16 16 16 16 17 18 18 18 18 17 18
17 10 9 9 3 -0 10 5 3 4 3 2 2 9 6 5 8 7 9 8 9 11 12 13 14 15 16 15 16 14 13 13 14 14 14 14 14 15 15 15 15 15 16 16
21 15 10 7 -4 9 19 17 13 9 7 6 6 2 8 9 12 9 11 10 11 11 11 8 7 7 13 13 14 12 12 12 12 12 12 12 13 13 13 13 14 14 14 14
24 18 13 18 8 -11 6 11 17 11 11 11 9 4 6 17 7 5 2 7 8 4 5 8 10 13 12 12 11 10 10 10 10 11 12 13 13 12 12 12 13 14 13 13
13 9 8 20 3 11 10 18 21 11 15 12 11 10 13 11 6 4 4 4 4 8 8 8 8 8 9 11 11 10 10 11 12 13 12 12 12 13 13 13 12 12 12 12
14 10 8 7 7 -4 17 18 13 16 8 10 7 9 6 1 -2 0 2 2 5 4 7 9 7 7 8 9 8 8 9 10 11 11 11 11 12 13 13 12 12 12 11 10
15 19 20 17 16 14 17 12 9 10 13 9 12 9 8 3 3 4 5 6 6 5 3 5 5 5 6 8 8 7 8 9 8 7 6 8 10 12 13 10 11 11 10 10
21 20 17 16 15 13 15 13 12 15 16 15 12 10 5 1 1 2 3 4 -0 3 4 5 5 5 5 6 7 7 8 6 -0 3 5 7 8 9 10 11 12 11 9 8
22 20 17 18 19 16 18 19 18 18 17 12 10 6 3 0 0 1 1 0 1 3 5 6 5 4 4 5 4 3 5 2 4 4 5 5 5 5 6 9 8 10 12 11
22 20 17 16 19 14 13 19 19 18 16 10 7 6 4 2 -0 -0 1 1 3 4 6 5 4 3 2 -0 -2 -4 -5 -0 1 4 4 3 3 2 3 2 1 10 11 12